SCP
0 0 0 0 0 0 0 0 0 0 0 0 0 0 0 0 0 0 0 0 -0 -0 0 0 0 0 0 0 0 0 0 0 0 0 0 0 0 0 0 0 0 0 0 0 0
0 0 0 0 0 0 0 0 0 0 0 0 0 -0 0 0 0 0 0 0 0 0 0 0 0 0 0 0 0 0 0 0 0 0 0 0 0 0 0 0 0 0 0 0 0
0 0 0 0 0 0 0 0 0 0 0 0 0 -0 0 0 0 0 0 0 0 0 0 0 0 0 0 0 0 0 0 0 0 0 0 0 -0 0 0 0 0 0 0 0 0
0 0 0 0 0 0 0 0 0 0 0 0 0 0 0 0 0 0 0 0 0 0 0 0 0 0 0 0 0 0 0 0 0 0 0 0 0 -0 0 0 -0 -0 0 0 0
0 0 0 0 -0 0 0 -0 0 0 0 0 0 0 0 0 0 0 -0 0 0 0 0 0 0 0 0 0 0 0 0 0 0 0 0 0 0 -0 0 -0 -0 -0 -0 -0 0
0 0 0 0 0 0 0 0 0 0 0 0 -0 0 0 0 0 0 0 0 0 0 0 0 0 0 0 0 0 0 0 0 0 0 0 0 0 -0 -0 -0 -0 -0 0 -0 -0
0 0 0 0 0 0 0 0 0 0 0 0 -0 0 0 -0 0 0 0 0 0 0 0 0 0 0 0 0 0 0 0 -0 0 0 0 0 0 0 -0 -0 -0 -0 -0 0 0
0 0 0 0 0 0 0 0 0 0 0 0 0 0 0 0 0 0 0 0 0 0 0 0 0 0 0 0 0 0 0 0 0 0 0 0 0 0 -0 -0 -0 -0 -0 0 0
0 0 0 0 0 0 0 0 0 0 0 0 0 0 0 0 0 0 0 0 0 0 0 0 0 0 0 0 0 0 0 0 0 0 0 0 -0 -0 -0 -0 -0 -0 -0 0 0
0 0 0 0 0 0 0 0 0 0 0 0 0 0 0 0 0 0 0 0 0 0 0 0 0 0 0 0 0 0 0 0 0 0 0 0 0 -0 -0 -0 -0 -0 -0 -0 0
0 0 0 0 0 0 0 0 0 0 0 0 0 0 0 0 0 0 0 0 0 0 0 0 0 0 0 0 0 0 0 0 0 0 0 0 -0 0 0 -0 -0 -0 -0 -0 0
0 0 0 0 0 0 0 0 0 0 0 0 0 0 0 0 0 0 0 0 0 0 0 0 0 0 0 0 0 0 0 0 0 0 0 0 0 -0 0 -0 -0 -0 -0 -0 0
0 0 0 0 0 0 0 0 0 0 0 0 0 0 0 0 0 0 0 0 0 0 0 0 0 0 0 0 0 0 0 0 0 0 0 0 0 -0 -0 -0 -0 -0 -0 -0 0
0 0 0 0 0 0 0 0 0 0 0 0 0 0 0 0 0 0 0 0 0 0 0 0 0 0 0 0 0 0 0 0 0 0 0 0 0 -0 -0 -0 -0 -0 -0 -0 0
0 0 0 0 0 0 0 0 0 0 0 0 0 0 0 0 0 0 0 0 0 0 0 0 0 0 0 0 0 0 0 0 0 0 0 0 0 0 -0 -0 -0 -0 -0 -0 0
0 0 0 0 0 0 0 0 0 0 0 0 0 0 0 0 0 0 0 0 0 0 0 0 0 0 0 0 0 0 0 0 0 0 -0 0 0 -0 -0 -0 -0 -0 -0 -0 -0
0 0 0 0 0 0 0 0 0 0 0 0 0 0 0 0 0 0 0 -0 -0 0 0 0 0 0 0 0 0 0 0 0 0 0 -0 -0 0 -0 0 -0 0 -0 -0 -0 -0
0 0 0 0 0 0 0 0 0 0 0 0 0 0 0 0 0 0 0 0 0 0 0 0 0 0 0 0 0 0 0 0 0 0 0 -0 0 -0 0 -0 0 0 -0 -0 -0
0 0 0 0 0 0 0 0 0 0 0 0 0 0 0 0 0 0 0 0 0 0 0 0 0 0 0 0 0 0 0 0 0 0 0 0 0 0 -0 -0 -0 -0 -0 -0 -0
0 0 0 0 0 0 0 0 0 0 0 0 0 0 0 0 0 0 0 0 0 0 0 0 0 0 0 0 0 0 0 0 0 -0 -0 0 0 0 -0 -0 -0 -0 -0 -0 -0
0 0 0 0 0 0 0 0 0 0 0 0 0 0 0 0 0 0 0 0 0 0 0 0 0 0 0 0 0 0 0 0 0 0 -0 0 0 -0 0 -0 -0 -0 -0 -0 0
0 0 0 0 0 0 0 0 0 0 0 0 0 0 0 0 0 0 0 0 0 0 0 0 0 0 0 0 0 0 0 0 0 0 0 0 0 -0 -0 -0 0 0 -0 -0 0
0 0 0 0 0 0 0 0 0 0 0 0 0 0 0 0 0 0 0 0 0 0 0 0 0 0 0 0 0 0 0 0 0 0 0 0 0 -0 -0 -0 -0 -0 -0 -0 0
0 0 0 0 0 0 0 0 0 0 0 0 0 0 0 0 0 0 0 0 0 0 0 0 0 0 0 0 0 0 0 0 0 0 0 -0 -0 -0 -0 -0 -0 -0 -0 -0 0
0 0 0 0 0 0 0 0 0 0 0 0 0 0 0 0 0 0 0 0 0 0 0 0 0 0 0 0 0 0 0 0 0 0 0 0 0 -0 -0 -0 -0 -0 -0 -0 0
0 0 0 0 0 0 0 0 0 0 0 0 0 0 0 0 0 0 0 0 0 0 0 0 0 0 0 0 0 0 0 0 0 0 0 0 0 -0 -0 -0 -0 -0 -0 -0 0
0 0 0 0 0 0 0 0 0 0 0 0 0 0 0 0 0 0 0 0 0 0 0 0 0 0 0 0 0 0 0 0 0 0 0 -0 0 0 -0 -0 -0 -0 -0 -0 0
Wind_Speed_500mb
27 33 37 41 38 38 25 17 15 13 15 12 11 15 18 17 16 18 43 41 61 57 45 39 16 11 8 5 1 7 1 8 10 11 15 36 38 62 38 41 47 50 49 51 50
27 32 36 40 37 36 23 16 14 12 16 12 11 15 21 21 13 14 49 53 59 49 38 24 16 19 6 4 2 4 3 9 9 15 30 50 46 55 27 40 48 51 59 54 42
25 30 35 39 38 35 25 16 14 12 16 15 12 14 23 23 7 42 61 63 34 32 25 23 17 10 6 4 2 3 8 4 35 41 37 36 47 43 28 18 35 52 59 39 31
23 28 33 36 38 35 25 15 14 12 14 19 14 10 23 28 8 59 68 36 27 23 25 24 20 8 6 8 4 6 17 19 26 49 29 28 38 33 35 35 57 53 47 43 36
22 26 31 35 34 33 27 16 14 11 11 18 15 9 20 21 25 66 42 27 21 23 28 24 30 13 6 9 15 6 8 33 41 46 26 24 34 24 60 75 63 33 15 30 32
22 25 29 32 32 31 28 15 17 12 9 16 13 6 15 14 46 67 29 17 17 17 24 25 18 19 8 8 2 19 29 34 23 29 22 17 29 48 69 64 60 55 19 14 15
20 24 28 31 32 29 28 14 15 14 5 16 10 6 10 20 44 63 29 19 17 9 17 20 18 28 25 11 21 14 14 18 3 37 9 29 34 46 65 58 62 62 56 18 23
19 23 27 31 31 27 26 16 14 12 1 16 16 4 8 21 44 57 31 17 19 16 15 15 9 9 23 34 9 12 8 14 12 34 22 9 14 40 67 61 61 67 67 50 31
19 22 26 29 31 26 26 13 17 4 3 10 17 6 7 13 51 70 28 26 17 17 18 24 7 13 24 9 6 13 12 10 17 33 10 24 16 30 60 63 63 63 64 62 53
19 20 23 26 27 22 21 4 22 13 2 3 16 6 24 27 29 69 14 26 15 6 3 14 20 5 12 17 10 16 8 12 14 13 32 25 33 35 56 60 54 62 65 70 69
19 20 23 27 27 17 16 3 6 3 28 20 19 8 25 27 19 71 30 18 19 18 9 13 17 20 21 9 10 16 5 17 14 8 9 28 42 38 49 62 72 67 68 70 77
18 19 22 25 24 15 17 5 4 10 17 16 9 17 23 20 20 75 38 16 23 8 17 9 11 15 20 6 16 8 7 11 18 1 11 5 30 26 39 44 54 62 71 79 93
20 19 20 24 24 18 17 6 7 17 6 6 16 14 19 13 19 52 38 12 13 11 9 9 9 27 13 14 31 8 1 20 14 16 6 12 4 45 38 43 61 71 66 70 70
17 18 18 23 12 22 12 4 13 9 9 8 9 14 25 8 12 40 35 8 10 6 7 3 12 17 27 13 22 8 5 28 19 3 3 13 2 21 37 38 50 75 82 81 87
16 14 17 20 18 15 11 4 10 4 7 4 6 8 18 17 11 26 46 11 6 9 3 6 14 14 16 22 13 14 36 14 5 2 4 17 5 12 37 59 60 68 82 83 82
14 12 13 15 18 13 6 8 12 11 8 3 4 12 6 18 12 23 21 20 9 6 9 4 12 4 10 31 5 31 8 2 5 3 7 11 2 13 25 34 43 61 79 82 88
12 9 8 12 13 9 4 8 9 8 5 1 4 8 6 11 12 19 11 18 14 14 17 16 8 13 16 16 10 32 12 6 9 10 2 12 9 2 19 35 37 47 70 81 85
13 12 7 9 16 6 4 8 5 1 4 0 3 3 7 10 7 14 6 11 12 10 7 10 14 16 21 8 12 13 8 7 1 7 9 14 10 2 24 47 50 54 64 77 88
22 17 7 5 9 8 2 5 10 5 8 13 3 5 3 2 8 8 10 2 5 5 10 11 6 10 5 7 9 13 11 3 1 4 4 8 7 7 35 43 59 65 75 81 90
31 14 3 4 11 4 5 8 4 2 5 3 5 1 3 9 7 9 5 6 6 9 5 4 8 5 10 13 15 8 6 6 7 10 8 7 4 15 36 47 44 53 69 78 85
27 13 7 13 12 3 4 5 4 4 2 2 6 7 6 5 6 5 3 1 2 3 12 7 6 11 4 12 8 12 9 8 1 3 2 8 3 5 11 29 37 49 59 69 81
25 8 15 19 7 5 6 5 6 5 4 3 6 6 7 4 6 4 6 9 3 3 5 6 8 6 6 6 5 3 5 5 4 8 3 2 6 4 5 32 38 48 57 69 74
31 15 18 22 7 4 5 4 4 7 6 5 5 3 3 7 7 2 7 8 8 2 3 7 3 7 14 10 6 6 6 3 4 3 1 3 5 5 25 44 44 45 53 71 76
21 6 8 9 8 11 10 7 7 6 6 7 8 6 6 6 7 9 6 4 6 6 10 5 5 10 9 11 3 9 10 8 5 3 3 8 19 24 33 39 57 56 53 66 66
20 5 12 7 8 7 7 12 10 10 4 10 3 5 10 8 4 6 5 5 7 8 6 6 5 4 8 10 6 8 7 9 4 4 5 5 9 25 26 33 46 53 59 66 69
26 19 14 12 24 15 6 13 15 7 11 8 7 11 7 10 11 15 12 5 6 6 6 8 3 4 6 3 6 9 8 8 4 5 11 10 13 8 50 43 43 47 57 64 69
23 35 24 17 12 8 10 11 15 24 4 1 20 10 8 9 15 27 20 20 15 11 4 6 6 6 7 8 8 8 9 5 6 6 5 5 9 29 34 46 44 41 63 65 69
Wind_Direction_500mb
6 8 8 8 8 11 14 18 20 22 21 23 21 11 358 353 329 329 358 345 340 335 332 331 341 351 20 88 121 167 198 259 266 293 293 295 303 300 285 271 280 263 261 277 284
359 3 3 5 5 7 10 12 16 13 12 12 2 3 358 354 352 6 346 338 330 343 358 24 37 11 72 98 215 129 212 244 235 274 289 296 304 296 295 274 272 278 279 280 274
354 357 360 2 0 5 4 5 13 10 4 3 343 351 359 356 63 348 344 336 354 4 25 32 23 34 59 322 216 179 244 279 292 283 297 301 294 313 303 290 293 290 282 282 269
347 353 356 358 359 359 0 1 5 3 7 17 7 3 15 31 48 352 349 4 22 36 35 41 26 27 33 341 356 276 271 281 285 304 316 314 324 330 17 328 319 308 268 271 266
340 348 351 354 2 357 355 1 354 347 353 7 17 40 35 47 9 356 3 17 36 48 44 36 22 1 352 314 318 224 289 304 295 305 316 41 20 342 355 344 348 346 262 245 260
336 341 348 353 356 1 350 1 355 343 327 351 15 51 43 70 8 355 2 10 31 49 46 38 21 352 298 299 249 308 286 282 310 328 345 59 33 23 352 350 2 17 347 250 248
329 336 344 350 353 358 346 347 346 3 6 9 9 43 56 33 6 360 6 5 1 55 52 35 41 30 340 315 324 301 327 331 21 347 338 346 33 16 357 1 7 15 20 37 1
323 334 342 345 351 352 346 339 332 346 106 20 24 71 79 17 7 9 31 38 26 97 64 20 12 349 2 323 5 359 36 350 335 359 3 35 16 9 5 9 12 10 7 2 356
322 332 340 344 348 350 349 350 345 355 214 355 15 85 45 4 5 12 23 32 59 93 83 26 13 22 5 17 5 33 316 318 320 12 45 50 2 354 10 15 16 8 3 358 357
319 329 335 339 344 352 352 19 57 31 310 6 24 98 16 349 2 7 45 41 58 97 292 24 27 35 9 22 357 319 342 306 308 344 54 53 31 7 12 16 13 11 3 358 359
313 323 334 338 343 350 352 319 306 36 64 75 53 50 359 1 5 12 30 53 39 48 18 12 31 4 323 313 256 270 238 290 310 220 83 61 40 11 4 9 13 5 3 358 357
307 322 334 339 344 347 358 335 273 151 95 68 56 27 14 6 360 12 24 59 39 34 338 23 23 325 303 295 327 305 295 331 308 269 329 83 61 20 15 13 6 1 3 360 357
308 319 332 339 336 355 4 12 145 152 88 45 34 13 3 26 38 8 17 39 52 33 4 81 310 321 351 354 3 351 344 337 279 308 232 314 101 9 10 6 9 9 4 1 358
299 314 333 345 348 351 8 52 147 144 76 334 358 14 359 99 60 15 15 47 46 30 337 301 340 349 340 9 1 323 337 315 291 299 352 20 22 24 356 1 8 5 1 356 354
294 312 335 349 340 355 347 165 159 122 20 23 15 6 27 77 328 13 18 68 56 353 15 272 342 339 351 344 336 265 322 290 279 44 29 356 57 5 358 1 0 357 354 354 353
283 307 346 348 354 6 11 145 133 45 262 141 26 356 43 27 29 353 24 48 68 15 359 331 311 312 322 308 267 323 355 310 32 50 40 313 52 11 10 354 340 347 351 352 353
268 290 312 8 359 14 102 147 34 133 36 354 36 36 103 12 24 13 42 29 36 19 9 334 354 332 350 330 333 4 28 350 9 15 300 335 41 261 351 360 347 344 347 350 355
241 250 263 50 359 12 180 51 117 216 182 220 116 94 88 7 38 8 53 28 43 60 76 28 350 3 342 27 305 343 56 105 356 354 308 353 8 17 24 358 354 351 353 355 357
212 224 234 110 38 316 242 70 220 195 140 154 106 119 108 81 125 81 38 88 8 45 96 17 292 319 338 326 0 335 41 325 272 242 292 331 342 139 359 355 356 355 356 356 355
210 223 169 143 87 305 80 240 170 22 96 55 164 310 123 353 69 60 7 299 348 43 129 171 326 347 312 5 19 53 347 39 7 23 351 341 18 328 347 348 349 353 350 349 352
208 149 139 108 88 102 177 213 143 144 99 65 159 116 81 135 87 78 191 112 314 30 66 127 106 292 16 28 333 336 14 16 158 68 20 318 358 253 332 346 339 345 343 346 349
183 112 156 145 90 84 149 163 121 160 120 76 96 102 121 130 97 124 137 161 32 121 44 41 143 282 221 312 274 296 17 68 92 321 49 260 287 186 231 350 343 336 343 346 355
152 129 155 163 141 184 147 110 143 150 184 147 95 63 94 109 92 198 127 135 71 43 95 210 21 4 350 357 12 27 12 39 184 112 236 317 295 349 348 351 349 340 344 348 354
151 134 117 158 157 142 151 178 169 154 142 115 125 105 106 85 23 164 135 120 103 20 56 121 111 148 185 213 162 329 333 7 103 108 263 236 301 321 342 343 340 340 345 349 350
156 156 155 159 217 149 124 150 143 172 140 164 93 201 152 115 33 156 132 108 76 357 65 101 128 150 259 250 226 249 243 335 78 166 188 261 275 300 329 330 326 330 339 348 351
156 144 135 114 130 108 200 216 164 149 142 214 185 148 141 141 199 188 138 172 174 42 65 331 163 103 315 205 13 269 223 314 227 252 267 271 289 222 326 325 333 337 342 345 347
174 152 151 146 138 142 205 175 178 134 143 286 158 120 123 138 116 109 99 115 119 137 132 78 113 70 271 351 347 347 225 212 277 249 202 308 262 326 323 327 329 330 346 342 345
Wind_Speed_850mb
27 33 37 41 38 38 25 17 15 13 15 12 11 15 18 17 16 18 43 41 61 57 45 39 16 11 8 5 1 7 1 8 10 11 15 36 38 62 38 41 47 50 49 51 50
27 32 36 40 37 36 23 16 14 12 16 12 11 15 21 21 13 14 49 53 59 49 38 24 16 19 6 4 2 4 3 9 9 15 30 50 46 55 27 40 48 51 59 54 42
25 30 35 39 38 35 25 16 14 12 16 15 12 14 23 23 7 42 61 63 34 32 25 23 17 10 6 4 2 3 8 4 35 41 37 36 47 43 28 18 35 52 59 39 31
23 28 33 36 38 35 25 15 14 12 14 19 14 10 23 28 8 59 68 36 27 23 25 24 20 8 6 8 4 6 17 19 26 49 29 28 38 33 35 35 57 53 47 43 36
22 26 31 35 34 33 27 16 14 11 11 18 15 9 20 21 25 66 42 27 21 23 28 24 30 13 6 9 15 6 8 33 41 46 26 24 34 24 60 75 63 33 15 30 32
22 25 29 32 32 31 28 15 17 12 9 16 13 6 15 14 46 67 29 17 17 17 24 25 18 19 8 8 2 19 29 34 23 29 22 17 29 48 69 64 60 55 19 14 15
20 24 28 31 32 29 28 14 15 14 5 16 10 6 10 20 44 63 29 19 17 9 17 20 18 28 25 11 21 14 14 18 3 37 9 29 34 46 65 58 62 62 56 18 23
19 23 27 31 31 27 26 16 14 12 1 16 16 4 8 21 44 57 31 17 19 16 15 15 9 9 23 34 9 12 8 14 12 34 22 9 14 40 67 61 61 67 67 50 31
19 22 26 29 31 26 26 13 17 4 3 10 17 6 7 13 51 70 28 26 17 17 18 24 7 13 24 9 6 13 12 10 17 33 10 24 16 30 60 63 63 63 64 62 53
19 20 23 26 27 22 21 4 22 13 2 3 16 6 24 27 29 69 14 26 15 6 3 14 20 5 12 17 10 16 8 12 14 13 32 25 33 35 56 60 54 62 65 70 69
19 20 23 27 27 17 16 3 6 3 28 20 19 8 25 27 19 71 30 18 19 18 9 13 17 20 21 9 10 16 5 17 14 8 9 28 42 38 49 62 72 67 68 70 77
18 19 22 25 24 15 17 5 4 10 17 16 9 17 23 20 20 75 38 16 23 8 17 9 11 15 20 6 16 8 7 11 18 1 11 5 30 26 39 44 54 62 71 79 93
20 19 20 24 24 18 17 6 7 17 6 6 16 14 19 13 19 52 38 12 13 11 9 9 9 27 13 14 31 8 1 20 14 16 6 12 4 45 38 43 61 71 66 70 70
17 18 18 23 12 22 12 4 13 9 9 8 9 14 25 8 12 40 35 8 10 6 7 3 12 17 27 13 22 8 5 28 19 3 3 13 2 21 37 38 50 75 82 81 87
16 14 17 20 18 15 11 4 10 4 7 4 6 8 18 17 11 26 46 11 6 9 3 6 14 14 16 22 13 14 36 14 5 2 4 17 5 12 37 59 60 68 82 83 82
14 12 13 15 18 13 6 8 12 11 8 3 4 12 6 18 12 23 21 20 9 6 9 4 12 4 10 31 5 31 8 2 5 3 7 11 2 13 25 34 43 61 79 82 88
12 9 8 12 13 9 4 8 9 8 5 1 4 8 6 11 12 19 11 18 14 14 17 16 8 13 16 16 10 32 12 6 9 10 2 12 9 2 19 35 37 47 70 81 85
13 12 7 9 16 6 4 8 5 1 4 0 3 3 7 10 7 14 6 11 12 10 7 10 14 16 21 8 12 13 8 7 1 7 9 14 10 2 24 47 50 54 64 77 88
22 17 7 5 9 8 2 5 10 5 8 13 3 5 3 2 8 8 10 2 5 5 10 11 6 10 5 7 9 13 11 3 1 4 4 8 7 7 35 43 59 65 75 81 90
31 14 3 4 11 4 5 8 4 2 5 3 5 1 3 9 7 9 5 6 6 9 5 4 8 5 10 13 15 8 6 6 7 10 8 7 4 15 36 47 44 53 69 78 85
27 13 7 13 12 3 4 5 4 4 2 2 6 7 6 5 6 5 3 1 2 3 12 7 6 11 4 12 8 12 9 8 1 3 2 8 3 5 11 29 37 49 59 69 81
25 8 15 19 7 5 6 5 6 5 4 3 6 6 7 4 6 4 6 9 3 3 5 6 8 6 6 6 5 3 5 5 4 8 3 2 6 4 5 32 38 48 57 69 74
31 15 18 22 7 4 5 4 4 7 6 5 5 3 3 7 7 2 7 8 8 2 3 7 3 7 14 10 6 6 6 3 4 3 1 3 5 5 25 44 44 45 53 71 76
21 6 8 9 8 11 10 7 7 6 6 7 8 6 6 6 7 9 6 4 6 6 10 5 5 10 9 11 3 9 10 8 5 3 3 8 19 24 33 39 57 56 53 66 66
20 5 12 7 8 7 7 12 10 10 4 10 3 5 10 8 4 6 5 5 7 8 6 6 5 4 8 10 6 8 7 9 4 4 5 5 9 25 26 33 46 53 59 66 69
26 19 14 12 24 15 6 13 15 7 11 8 7 11 7 10 11 15 12 5 6 6 6 8 3 4 6 3 6 9 8 8 4 5 11 10 13 8 50 43 43 47 57 64 69
23 35 24 17 12 8 10 11 15 24 4 1 20 10 8 9 15 27 20 20 15 11 4 6 6 6 7 8 8 8 9 5 6 6 5 5 9 29 34 46 44 41 63 65 69
Wind_Direction_850mb
6 8 8 8 8 11 14 18 20 22 21 23 21 11 358 353 329 329 358 345 340 335 332 331 341 351 20 88 121 167 198 259 266 293 293 295 303 300 285 271 280 263 261 277 284
359 3 3 5 5 7 10 12 16 13 12 12 2 3 358 354 352 6 346 338 330 343 358 24 37 11 72 98 215 129 212 244 235 274 289 296 304 296 295 274 272 278 279 280 274
354 357 360 2 0 5 4 5 13 10 4 3 343 351 359 356 63 348 344 336 354 4 25 32 23 34 59 322 216 179 244 279 292 283 297 301 294 313 303 290 293 290 282 282 269
347 353 356 358 359 359 0 1 5 3 7 17 7 3 15 31 48 352 349 4 22 36 35 41 26 27 33 341 356 276 271 281 285 304 316 314 324 330 17 328 319 308 268 271 266
340 348 351 354 2 357 355 1 354 347 353 7 17 40 35 47 9 356 3 17 36 48 44 36 22 1 352 314 318 224 289 304 295 305 316 41 20 342 355 344 348 346 262 245 260
336 341 348 353 356 1 350 1 355 343 327 351 15 51 43 70 8 355 2 10 31 49 46 38 21 352 298 299 249 308 286 282 310 328 345 59 33 23 352 350 2 17 347 250 248
329 336 344 350 353 358 346 347 346 3 6 9 9 43 56 33 6 360 6 5 1 55 52 35 41 30 340 315 324 301 327 331 21 347 338 346 33 16 357 1 7 15 20 37 1
323 334 342 345 351 352 346 339 332 346 106 20 24 71 79 17 7 9 31 38 26 97 64 20 12 349 2 323 5 359 36 350 335 359 3 35 16 9 5 9 12 10 7 2 356
322 332 340 344 348 350 349 350 345 355 214 355 15 85 45 4 5 12 23 32 59 93 83 26 13 22 5 17 5 33 316 318 320 12 45 50 2 354 10 15 16 8 3 358 357
319 329 335 339 344 352 352 19 57 31 310 6 24 98 16 349 2 7 45 41 58 97 292 24 27 35 9 22 357 319 342 306 308 344 54 53 31 7 12 16 13 11 3 358 359
313 323 334 338 343 350 352 319 306 36 64 75 53 50 359 1 5 12 30 53 39 48 18 12 31 4 323 313 256 270 238 290 310 220 83 61 40 11 4 9 13 5 3 358 357
307 322 334 339 344 347 358 335 273 151 95 68 56 27 14 6 360 12 24 59 39 34 338 23 23 325 303 295 327 305 295 331 308 269 329 83 61 20 15 13 6 1 3 360 357
308 319 332 339 336 355 4 12 145 152 88 45 34 13 3 26 38 8 17 39 52 33 4 81 310 321 351 354 3 351 344 337 279 308 232 314 101 9 10 6 9 9 4 1 358
299 314 333 345 348 351 8 52 147 144 76 334 358 14 359 99 60 15 15 47 46 30 337 301 340 349 340 9 1 323 337 315 291 299 352 20 22 24 356 1 8 5 1 356 354
294 312 335 349 340 355 347 165 159 122 20 23 15 6 27 77 328 13 18 68 56 353 15 272 342 339 351 344 336 265 322 290 279 44 29 356 57 5 358 1 0 357 354 354 353
283 307 346 348 354 6 11 145 133 45 262 141 26 356 43 27 29 353 24 48 68 15 359 331 311 312 322 308 267 323 355 310 32 50 40 313 52 11 10 354 340 347 351 352 353
268 290 312 8 359 14 102 147 34 133 36 354 36 36 103 12 24 13 42 29 36 19 9 334 354 332 350 330 333 4 28 350 9 15 300 335 41 261 351 360 347 344 347 350 355
241 250 263 50 359 12 180 51 117 216 182 220 116 94 88 7 38 8 53 28 43 60 76 28 350 3 342 27 305 343 56 105 356 354 308 353 8 17 24 358 354 351 353 355 357
212 224 234 110 38 316 242 70 220 195 140 154 106 119 108 81 125 81 38 88 8 45 96 17 292 319 338 326 0 335 41 325 272 242 292 331 342 139 359 355 356 355 356 356 355
210 223 169 143 87 305 80 240 170 22 96 55 164 310 123 353 69 60 7 299 348 43 129 171 326 347 312 5 19 53 347 39 7 23 351 341 18 328 347 348 349 353 350 349 352
208 149 139 108 88 102 177 213 143 144 99 65 159 116 81 135 87 78 191 112 314 30 66 127 106 292 16 28 333 336 14 16 158 68 20 318 358 253 332 346 339 345 343 346 349
183 112 156 145 90 84 149 163 121 160 120 76 96 102 121 130 97 124 137 161 32 121 44 41 143 282 221 312 274 296 17 68 92 321 49 260 287 186 231 350 343 336 343 346 355
152 129 155 163 141 184 147 110 143 150 184 147 95 63 94 109 92 198 127 135 71 43 95 210 21 4 350 357 12 27 12 39 184 112 236 317 295 349 348 351 349 340 344 348 354
151 134 117 158 157 142 151 178 169 154 142 115 125 105 106 85 23 164 135 120 103 20 56 121 111 148 185 213 162 329 333 7 103 108 263 236 301 321 342 343 340 340 345 349 350
156 156 155 159 217 149 124 150 143 172 140 164 93 201 152 115 33 156 132 108 76 357 65 101 128 150 259 250 226 249 243 335 78 166 188 261 275 300 329 330 326 330 339 348 351
156 144 135 114 130 108 200 216 164 149 142 214 185 148 141 141 199 188 138 172 174 42 65 331 163 103 315 205 13 269 223 314 227 252 267 271 289 222 326 325 333 337 342 345 347
174 152 151 146 138 142 205 175 178 134 143 286 158 120 123 138 116 109 99 115 119 137 132 78 113 70 271 351 347 347 225 212 277 249 202 308 262 326 323 327 329 330 346 342 345